Terminal Aerodrome Forecast
Issued by NWS Boston, MA

Home | Current Version | Previous Version | Text Only | Print | Product List | Glossary On
Versions: 1 2 3 4 5 6 7 8 9 10 11 12 13 14 15 16 17 18 19 20 21 22 23 24 25 26 27 28 29 30 31 32 33 34 35 36 37 38 39 40 41 42 43 44 45 46 47 48 49 50
000
FTUS41 KBOX 111522 AAA
TAFBOS
TAF AMD
KBOS 111522Z 1115/1218 28012G20KT 5SM -SN OVC035
     FM111630 28013G20KT P6SM BKN050
     FM112000 28015G25KT P6SM OVC035
     FM112300 29017G25KT P6SM SCT070
     FM121200 28009KT P6SM FEW250=

USA.gov is the U.S. government's official web portal to all federal, state and local government web resources and services.